Tabellarische Ansicht des 11.10.2012


Die einzelnen Werte des Tages

Uhrzeit Temperatur Luftdruck Luftfeuchte Wind Hi-Wind Taupunkt THW Index Wind Chill Heat Index Solar- strahlung Regen

00:00

3.9 C

1013.4 hpa

93 %

0.0 km/h aus 117

0.0 km/h aus ---

2.9 C

3.9 C

3.9 C

3.9 C

0 W/m

0.00 mm

00:05

3.9 C

1013.4 hpa

93 %

0.0 km/h aus 115

0.0 km/h aus ---

2.9 C

3.9 C

3.9 C

3.9 C

0 W/m

0.00 mm

00:10

3.9 C

1013.4 hpa

93 %

0.0 km/h aus 117

0.0 km/h aus ---

2.9 C

3.9 C

3.9 C

3.9 C

0 W/m

0.00 mm

00:15

3.9 C

1013.4 hpa

94 %

0.0 km/h aus 116

3.2 km/h aus WSW

3.0 C

3.9 C

3.9 C

3.9 C

0 W/m

0.00 mm

00:20

4.0 C

1013.4 hpa

94 %

0.0 km/h aus 117

1.6 km/h aus WSW

3.1 C

4.0 C

4.0 C

4.0 C

0 W/m

0.00 mm

00:25

4.0 C

1013.4 hpa

94 %

0.0 km/h aus 116

1.6 km/h aus WSW

3.1 C

4.0 C

4.0 C

4.0 C

0 W/m

0.00 mm

00:30

3.9 C

1013.4 hpa

94 %

1.6 km/h aus 117

3.2 km/h aus WSW

3.1 C

3.9 C

3.9 C

3.9 C

0 W/m

0.00 mm

00:35

3.9 C

1013.4 hpa

94 %

0.0 km/h aus 116

1.6 km/h aus WSW

3.0 C

3.9 C

3.9 C

3.9 C

0 W/m

0.00 mm

00:40

4.0 C

1013.4 hpa

94 %

0.0 km/h aus 117

1.6 km/h aus WSW

3.1 C

4.0 C

4.0 C

4.0 C

0 W/m

0.00 mm

00:45

4.1 C

1013.6 hpa

94 %

0.0 km/h aus 117

0.0 km/h aus ---

3.2 C

4.1 C

4.1 C

4.1 C

0 W/m

0.00 mm

00:50

4.1 C

1013.6 hpa

94 %

0.0 km/h aus 116

0.0 km/h aus ---

3.2 C

4.1 C

4.1 C

4.1 C

0 W/m

0.00 mm

00:55

3.9 C

1013.6 hpa

94 %

0.0 km/h aus 117

1.6 km/h aus WSW

3.1 C

3.9 C

3.9 C

3.9 C

0 W/m

0.00 mm

01:00

3.8 C

1013.5 hpa

94 %

0.0 km/h aus 117

0.0 km/h aus ---

2.9 C

3.8 C

3.8 C

3.8 C

0 W/m

0.00 mm

01:05

3.7 C

1013.5 hpa

94 %

0.0 km/h aus 116

0.0 km/h aus ---

2.8 C

3.7 C

3.7 C

3.7 C

0 W/m

0.00 mm

01:10

3.7 C

1013.5 hpa

94 %

0.0 km/h aus 116

1.6 km/h aus WSW

2.8 C

3.7 C

3.7 C

3.7 C

0 W/m

0.00 mm

01:15

3.6 C

1013.5 hpa

94 %

0.0 km/h aus 117

1.6 km/h aus WSW

2.7 C

3.6 C

3.6 C

3.6 C

0 W/m

0.00 mm

01:20

3.4 C

1013.5 hpa

94 %

0.0 km/h aus 115

0.0 km/h aus ---

2.6 C

3.4 C

3.4 C

3.4 C

0 W/m

0.00 mm

01:25

3.4 C

1013.5 hpa

94 %

0.0 km/h aus 116

1.6 km/h aus WSW

2.5 C

3.4 C

3.4 C

3.4 C

0 W/m

0.00 mm

01:30

3.4 C

1013.5 hpa

94 %

0.0 km/h aus 117

1.6 km/h aus WSW

2.5 C

3.4 C

3.4 C

3.4 C

0 W/m

0.00 mm

01:35

3.4 C

1013.5 hpa

94 %

0.0 km/h aus 118

1.6 km/h aus WSW

2.5 C

3.4 C

3.4 C

3.4 C

0 W/m

0.00 mm

01:40

3.4 C

1013.5 hpa

94 %

0.0 km/h aus 116

0.0 km/h aus ---

2.5 C

3.4 C

3.4 C

3.4 C

0 W/m

0.00 mm

01:45

3.4 C

1013.5 hpa

94 %

3.2 km/h aus 116

4.8 km/h aus WSW

2.5 C

3.2 C

3.2 C

3.4 C

0 W/m

0.00 mm

01:50

3.2 C

1013.5 hpa

94 %

3.2 km/h aus 117

4.8 km/h aus WSW

2.3 C

2.9 C

2.9 C

3.2 C

0 W/m

0.00 mm

01:55

3.3 C

1013.5 hpa

94 %

0.0 km/h aus 117

3.2 km/h aus WSW

2.5 C

3.3 C

3.3 C

3.3 C

0 W/m

0.00 mm

02:00

3.4 C

1013.4 hpa

94 %

1.6 km/h aus 116

3.2 km/h aus WSW

2.5 C

3.4 C

3.4 C

3.4 C

0 W/m

0.00 mm

02:05

3.3 C

1013.4 hpa

94 %

1.6 km/h aus 117

3.2 km/h aus WSW

2.5 C

3.3 C

3.3 C

3.3 C

0 W/m

0.00 mm

02:10

3.1 C

1013.4 hpa

94 %

1.6 km/h aus 116

4.8 km/h aus WSW

2.2 C

3.1 C

3.1 C

3.1 C

0 W/m

0.00 mm

02:15

3.1 C

1013.3 hpa

94 %

1.6 km/h aus 117

3.2 km/h aus WSW

2.2 C

3.1 C

3.1 C

3.1 C

0 W/m

0.00 mm

02:20

3.1 C

1013.3 hpa

94 %

0.0 km/h aus 117

0.0 km/h aus ---

2.2 C

3.1 C

3.1 C

3.1 C

0 W/m

0.00 mm

02:25

3.1 C

1013.3 hpa

94 %

0.0 km/h aus 117

0.0 km/h aus ---

2.2 C

3.1 C

3.1 C

3.1 C

0 W/m

0.00 mm

02:30

3.0 C

1013.2 hpa

94 %

0.0 km/h aus 116

0.0 km/h aus ---

2.1 C

3.0 C

3.0 C

3.0 C

0 W/m

0.00 mm

02:35

2.9 C

1013.2 hpa

94 %

0.0 km/h aus 117

0.0 km/h aus ---

2.1 C

2.9 C

2.9 C

2.9 C

0 W/m

0.00 mm

02:40

2.9 C

1013.2 hpa

94 %

0.0 km/h aus 117

0.0 km/h aus ---

2.0 C

2.9 C

2.9 C

2.9 C

0 W/m

0.00 mm

02:45

2.8 C

1013.4 hpa

94 %

0.0 km/h aus 117

1.6 km/h aus WSW

2.0 C

2.8 C

2.8 C

2.8 C

0 W/m

0.00 mm

02:50

2.8 C

1013.4 hpa

94 %

0.0 km/h aus 116

0.0 km/h aus ---

2.0 C

2.8 C

2.8 C

2.8 C

0 W/m

0.00 mm

02:55

2.8 C

1013.4 hpa

94 %

0.0 km/h aus 116

0.0 km/h aus ---

2.0 C

2.8 C

2.8 C

2.8 C

0 W/m

0.00 mm

03:00

2.7 C

1013.2 hpa

94 %

0.0 km/h aus 116

0.0 km/h aus ---

1.9 C

2.7 C

2.7 C

2.7 C

0 W/m

0.00 mm

03:05

2.7 C

1013.2 hpa

94 %

0.0 km/h aus 116

3.2 km/h aus WSW

1.8 C

2.7 C

2.7 C

2.7 C

0 W/m

0.00 mm

03:10

2.7 C

1013.2 hpa

94 %

1.6 km/h aus 117

3.2 km/h aus WSW

1.8 C

2.7 C

2.7 C

2.7 C

0 W/m

0.00 mm

03:15

2.6 C

1013.1 hpa

94 %

0.0 km/h aus 117

0.0 km/h aus ---

1.7 C

2.6 C

2.6 C

2.6 C

0 W/m

0.00 mm

03:20

2.5 C

1013.1 hpa

94 %

0.0 km/h aus 117

0.0 km/h aus ---

1.6 C

2.5 C

2.5 C

2.5 C

0 W/m

0.00 mm

03:25

2.5 C

1013.1 hpa

94 %

0.0 km/h aus 116

0.0 km/h aus ---

1.6 C

2.5 C

2.5 C

2.5 C

0 W/m

0.00 mm

03:30

2.4 C

1013.0 hpa

94 %

0.0 km/h aus 117

1.6 km/h aus WSW

1.6 C

2.4 C

2.4 C

2.4 C

0 W/m

0.00 mm

03:35

2.4 C

1013.0 hpa

94 %

0.0 km/h aus 117

0.0 km/h aus ---

1.6 C

2.4 C

2.4 C

2.4 C

0 W/m

0.00 mm

03:40

2.4 C

1013.0 hpa

94 %

0.0 km/h aus 117

0.0 km/h aus ---

1.6 C

2.4 C

2.4 C

2.4 C

0 W/m

0.00 mm

03:45

2.4 C

1012.9 hpa

94 %

0.0 km/h aus 118

0.0 km/h aus ---

1.5 C

2.4 C

2.4 C

2.4 C

0 W/m

0.00 mm

03:50

2.3 C

1012.9 hpa

94 %

0.0 km/h aus 117

3.2 km/h aus WSW

1.5 C

2.3 C

2.3 C

2.3 C

0 W/m

0.00 mm

03:55

2.3 C

1012.9 hpa

94 %

0.0 km/h aus 115

1.6 km/h aus WSW

1.5 C

2.3 C

2.3 C

2.3 C

0 W/m

0.00 mm

04:00

2.3 C

1012.8 hpa

94 %

1.6 km/h aus 117

3.2 km/h aus WSW

1.4 C

2.3 C

2.3 C

2.3 C

0 W/m

0.00 mm

04:05

2.3 C

1012.8 hpa

94 %

0.0 km/h aus 116

1.6 km/h aus WSW

1.4 C

2.3 C

2.3 C

2.3 C

0 W/m

0.00 mm

04:10

2.2 C

1012.8 hpa

94 %

0.0 km/h aus 117

3.2 km/h aus WSW

1.4 C

2.2 C

2.2 C

2.2 C

0 W/m

0.00 mm

04:15

2.2 C

1012.6 hpa

94 %

0.0 km/h aus 116

1.6 km/h aus WSW

1.4 C

2.2 C

2.2 C

2.2 C

0 W/m

0.00 mm

04:20

2.2 C

1012.6 hpa

94 %

0.0 km/h aus 116

1.6 km/h aus WSW

1.3 C

2.2 C

2.2 C

2.2 C

0 W/m

0.00 mm

04:25

2.2 C

1012.6 hpa

94 %

1.6 km/h aus 115

3.2 km/h aus WSW

1.3 C

2.2 C

2.2 C

2.2 C

0 W/m

0.00 mm

04:30

2.1 C

1012.5 hpa

94 %

0.0 km/h aus 117

3.2 km/h aus WSW

1.2 C

2.1 C

2.1 C

2.1 C

0 W/m

0.00 mm

04:35

2.1 C

1012.5 hpa

94 %

0.0 km/h aus 117

1.6 km/h aus WSW

1.2 C

2.1 C

2.1 C

2.1 C

0 W/m

0.00 mm

04:40

2.1 C

1012.5 hpa

94 %

0.0 km/h aus 117

0.0 km/h aus ---

1.2 C

2.1 C

2.1 C

2.1 C

0 W/m

0.00 mm

04:45

2.1 C

1012.5 hpa

94 %

0.0 km/h aus 117

0.0 km/h aus ---

1.2 C

2.1 C

2.1 C

2.1 C

0 W/m

0.00 mm

04:50

2.1 C

1012.5 hpa

94 %

0.0 km/h aus 118

1.6 km/h aus WSW

1.2 C

2.1 C

2.1 C

2.1 C

0 W/m

0.00 mm

04:55

2.0 C

1012.5 hpa

94 %

0.0 km/h aus 117

0.0 km/h aus ---

1.1 C

2.0 C

2.0 C

2.0 C

0 W/m

0.00 mm

05:00

1.9 C

1012.4 hpa

94 %

0.0 km/h aus 117

0.0 km/h aus ---

1.1 C

1.9 C

1.9 C

1.9 C

0 W/m

0.00 mm

05:05

1.9 C

1012.4 hpa

94 %

0.0 km/h aus 117

0.0 km/h aus ---

1.0 C

1.9 C

1.9 C

1.9 C

0 W/m

0.00 mm

05:10

1.9 C

1012.4 hpa

94 %

0.0 km/h aus 116

1.6 km/h aus WSW

1.0 C

1.9 C

1.9 C

1.9 C

0 W/m

0.00 mm

05:15

1.8 C

1012.4 hpa

94 %

0.0 km/h aus 117

0.0 km/h aus ---

1.0 C

1.8 C

1.8 C

1.8 C

0 W/m

0.00 mm

05:20

1.8 C

1012.4 hpa

94 %

0.0 km/h aus 117

0.0 km/h aus ---

1.0 C

1.8 C

1.8 C

1.8 C

0 W/m

0.00 mm

05:25

1.8 C

1012.4 hpa

94 %

0.0 km/h aus 117

0.0 km/h aus ---

0.9 C

1.8 C

1.8 C

1.8 C

0 W/m

0.00 mm

05:30

1.8 C

1012.5 hpa

94 %

0.0 km/h aus 117

0.0 km/h aus ---

0.9 C

1.8 C

1.8 C

1.8 C

0 W/m

0.00 mm

05:35

1.8 C

1012.5 hpa

94 %

0.0 km/h aus 117

0.0 km/h aus ---

0.9 C

1.8 C

1.8 C

1.8 C

0 W/m

0.00 mm

05:40

1.7 C

1012.5 hpa

94 %

0.0 km/h aus 116

0.0 km/h aus ---

0.9 C

1.7 C

1.7 C

1.7 C

0 W/m

0.00 mm

05:45

1.7 C

1012.5 hpa

94 %

0.0 km/h aus 116

0.0 km/h aus ---

0.8 C

1.7 C

1.7 C

1.7 C

0 W/m

0.00 mm

05:50

1.7 C

1012.5 hpa

94 %

0.0 km/h aus 118

0.0 km/h aus ---

0.8 C

1.7 C

1.7 C

1.7 C

0 W/m

0.00 mm

05:55

1.6 C

1012.5 hpa

94 %

0.0 km/h aus 117

1.6 km/h aus WSW

0.7 C

1.6 C

1.6 C

1.6 C

0 W/m

0.00 mm

06:00

1.6 C

1012.5 hpa

94 %

0.0 km/h aus 116

3.2 km/h aus WSW

0.7 C

1.6 C

1.6 C

1.6 C

0 W/m

0.00 mm

06:05

1.6 C

1012.5 hpa

94 %

0.0 km/h aus 117

3.2 km/h aus WSW

0.7 C

1.6 C

1.6 C

1.6 C

0 W/m

0.00 mm

06:10

1.5 C

1012.5 hpa

94 %

0.0 km/h aus 117

0.0 km/h aus ---

0.6 C

1.5 C

1.5 C

1.5 C

0 W/m

0.00 mm

06:15

1.4 C

1012.4 hpa

94 %

0.0 km/h aus 117

1.6 km/h aus WSW

0.6 C

1.4 C

1.4 C

1.4 C

0 W/m

0.00 mm

06:20

1.4 C

1012.4 hpa

94 %

0.0 km/h aus 117

1.6 km/h aus WSW

0.6 C

1.4 C

1.4 C

1.4 C

0 W/m

0.00 mm

06:25

1.4 C

1012.4 hpa

94 %

0.0 km/h aus 117

1.6 km/h aus WSW

0.6 C

1.4 C

1.4 C

1.4 C

0 W/m

0.00 mm

06:30

1.4 C

1012.4 hpa

94 %

0.0 km/h aus 116

0.0 km/h aus ---

0.5 C

1.3 C

1.4 C

1.3 C

0 W/m

0.00 mm

06:35

1.3 C

1012.4 hpa

94 %

0.0 km/h aus 117

3.2 km/h aus WSW

0.5 C

1.3 C

1.3 C

1.3 C

0 W/m

0.00 mm

06:40

1.3 C

1012.4 hpa

94 %

1.6 km/h aus 117

3.2 km/h aus WSW

0.5 C

1.3 C

1.3 C

1.3 C

0 W/m

0.00 mm

06:45

1.3 C

1012.3 hpa

94 %

0.0 km/h aus 117

1.6 km/h aus WSW

0.5 C

1.3 C

1.3 C

1.3 C

0 W/m

0.00 mm

06:50

1.3 C

1012.3 hpa

94 %

0.0 km/h aus 115

1.6 km/h aus WSW

0.5 C

1.3 C

1.3 C

1.3 C

0 W/m

0.00 mm

06:55

1.3 C

1012.3 hpa

94 %

0.0 km/h aus 117

3.2 km/h aus WSW

0.5 C

1.3 C

1.3 C

1.3 C

0 W/m

0.00 mm

07:00

1.3 C

1012.3 hpa

94 %

0.0 km/h aus 117

1.6 km/h aus WSW

0.5 C

1.3 C

1.3 C

1.3 C

0 W/m

0.00 mm

07:05

1.3 C

1012.3 hpa

94 %

0.0 km/h aus 117

1.6 km/h aus WSW

0.5 C

1.3 C

1.3 C

1.3 C

0 W/m

0.00 mm

07:10

1.3 C

1012.3 hpa

94 %

0.0 km/h aus 117

0.0 km/h aus ---

0.5 C

1.3 C

1.3 C

1.3 C

0 W/m

0.00 mm

07:15

1.3 C

1012.3 hpa

94 %

0.0 km/h aus 115

1.6 km/h aus WSW

0.5 C

1.3 C

1.3 C

1.3 C

0 W/m

0.00 mm

07:20

1.3 C

1012.3 hpa

94 %

0.0 km/h aus 117

3.2 km/h aus WSW

0.5 C

1.3 C

1.3 C

1.3 C

0 W/m

0.00 mm

07:25

1.3 C

1012.3 hpa

94 %

0.0 km/h aus 115

3.2 km/h aus WSW

0.5 C

1.3 C

1.3 C

1.3 C

0 W/m

0.00 mm

07:30

1.3 C

1012.4 hpa

94 %

1.6 km/h aus 116

3.2 km/h aus WSW

0.4 C

1.2 C

1.3 C

1.2 C

0 W/m

0.00 mm

07:35

1.2 C

1012.4 hpa

94 %

0.0 km/h aus 117

1.6 km/h aus WSW

0.4 C

1.2 C

1.2 C

1.2 C

0 W/m

0.00 mm

07:40

1.2 C

1012.4 hpa

94 %

0.0 km/h aus 116

0.0 km/h aus ---

0.3 C

1.1 C

1.2 C

1.1 C

0 W/m

0.00 mm

07:45

1.2 C

1012.4 hpa

94 %

0.0 km/h aus 116

0.0 km/h aus ---

0.3 C

1.1 C

1.2 C

1.1 C

0 W/m

0.00 mm

07:50

1.1 C

1012.4 hpa

94 %

0.0 km/h aus 117

0.0 km/h aus ---

0.3 C

1.1 C

1.1 C

1.1 C

0 W/m

0.00 mm

07:55

1.1 C

1012.4 hpa

94 %

0.0 km/h aus 117

0.0 km/h aus ---

0.2 C

1.0 C

1.1 C

1.0 C

0 W/m

0.00 mm

08:00

1.1 C

1012.4 hpa

94 %

0.0 km/h aus 117

0.0 km/h aus ---

0.2 C

1.0 C

1.1 C

1.0 C

0 W/m

0.00 mm

08:05

1.1 C

1012.4 hpa

94 %

1.6 km/h aus 115

3.2 km/h aus WSW

0.2 C

1.0 C

1.1 C

1.0 C

0 W/m

0.00 mm

08:10

1.1 C

1012.4 hpa

94 %

1.6 km/h aus 117

4.8 km/h aus WSW

0.2 C

1.0 C

1.1 C

1.0 C

0 W/m

0.00 mm

08:15

1.1 C

1012.5 hpa

94 %

0.0 km/h aus 115

3.2 km/h aus WSW

0.2 C

1.0 C

1.1 C

1.0 C

0 W/m

0.00 mm

08:20

1.1 C

1012.5 hpa

94 %

0.0 km/h aus 117

0.0 km/h aus ---

0.2 C

1.0 C

1.1 C

1.0 C

0 W/m

0.00 mm

08:25

1.1 C

1012.5 hpa

94 %

0.0 km/h aus 117

0.0 km/h aus ---

0.3 C

1.1 C

1.1 C

1.1 C

0 W/m

0.00 mm

08:30

1.2 C

1012.5 hpa

94 %

0.0 km/h aus 117

0.0 km/h aus ---

0.3 C

1.1 C

1.2 C

1.1 C

0 W/m

0.00 mm

08:35

1.2 C

1012.5 hpa

95 %

0.0 km/h aus 116

0.0 km/h aus ---

0.5 C

1.2 C

1.2 C

1.2 C

0 W/m

0.00 mm

08:40

1.3 C

1012.5 hpa

95 %

0.0 km/h aus 116

0.0 km/h aus ---

0.6 C

1.3 C

1.3 C

1.3 C

0 W/m

0.00 mm

08:45

1.3 C

1012.5 hpa

95 %

0.0 km/h aus 117

1.6 km/h aus WSW

0.6 C

1.3 C

1.3 C

1.3 C

0 W/m

0.00 mm

08:50

1.3 C

1012.5 hpa

95 %

0.0 km/h aus 116

0.0 km/h aus ---

0.6 C

1.3 C

1.3 C

1.3 C

0 W/m

0.00 mm

08:55

1.6 C

1012.5 hpa

95 %

0.0 km/h aus 117

4.8 km/h aus WSW

0.8 C

1.6 C

1.6 C

1.6 C

0 W/m

0.00 mm

09:00

1.8 C

1012.5 hpa

95 %

3.2 km/h aus 117

6.4 km/h aus WSW

1.1 C

1.4 C

1.4 C

1.8 C

0 W/m

0.00 mm

09:05

2.1 C

1012.5 hpa

95 %

1.6 km/h aus 117

4.8 km/h aus WSW

1.4 C

2.1 C

2.1 C

2.1 C

0 W/m

0.00 mm

09:10

2.4 C

1012.5 hpa

95 %

0.0 km/h aus 117

3.2 km/h aus WSW

1.7 C

2.4 C

2.4 C

2.4 C

0 W/m

0.00 mm

09:15

2.8 C

1012.5 hpa

95 %

0.0 km/h aus 116

1.6 km/h aus WSW

2.1 C

2.8 C

2.8 C

2.8 C

0 W/m

0.00 mm

09:20

3.2 C

1012.5 hpa

96 %

0.0 km/h aus 117

1.6 km/h aus WSW

2.6 C

3.2 C

3.2 C

3.2 C

0 W/m

0.00 mm

09:25

3.7 C

1012.5 hpa

96 %

0.0 km/h aus 117

4.8 km/h aus WSW

3.1 C

3.7 C

3.7 C

3.7 C

0 W/m

0.00 mm

09:30

4.1 C

1012.5 hpa

96 %

1.6 km/h aus 117

4.8 km/h aus WSW

3.5 C

4.1 C

4.1 C

4.1 C

0 W/m

0.00 mm

09:35

4.5 C

1012.5 hpa

96 %

1.6 km/h aus 116

4.8 km/h aus WSW

3.9 C

4.6 C

4.5 C

4.6 C

0 W/m

0.00 mm

09:40

4.9 C

1012.5 hpa

96 %

3.2 km/h aus 116

6.4 km/h aus WSW

4.4 C

4.9 C

4.9 C

5.0 C

0 W/m

0.00 mm

09:45

5.3 C

1012.5 hpa

96 %

1.6 km/h aus 117

4.8 km/h aus WSW

4.7 C

5.4 C

5.3 C

5.4 C

0 W/m

0.00 mm

09:50

5.7 C

1012.5 hpa

96 %

3.2 km/h aus 117

6.4 km/h aus WSW

5.1 C

5.7 C

5.7 C

5.7 C

0 W/m

0.00 mm

09:55

5.9 C

1012.5 hpa

96 %

1.6 km/h aus 116

6.4 km/h aus WSW

5.4 C

6.0 C

5.9 C

6.0 C

0 W/m

0.00 mm

10:00

6.2 C

1012.4 hpa

96 %

1.6 km/h aus 117

6.4 km/h aus WSW

5.6 C

6.3 C

6.2 C

6.3 C

0 W/m

0.00 mm

10:05

6.4 C

1012.4 hpa

96 %

3.2 km/h aus 117

6.4 km/h aus WSW

5.9 C

6.6 C

6.4 C

6.6 C

0 W/m

0.00 mm

10:10

6.7 C

1012.4 hpa

96 %

1.6 km/h aus 118

4.8 km/h aus SSE

6.1 C

6.8 C

6.7 C

6.8 C

0 W/m

0.00 mm

10:15

6.9 C

1012.4 hpa

96 %

4.8 km/h aus 117

8.0 km/h aus SSE

6.4 C

6.5 C

6.4 C

7.1 C

0 W/m

0.00 mm

10:20

7.2 C

1012.4 hpa

96 %

4.8 km/h aus 116

8.0 km/h aus SE

6.6 C

6.8 C

6.7 C

7.3 C

0 W/m

0.00 mm

10:25

7.4 C

1012.4 hpa

96 %

4.8 km/h aus 116

9.7 km/h aus SE

6.8 C

7.1 C

6.9 C

7.6 C

0 W/m

0.00 mm

10:30

7.6 C

1012.2 hpa

96 %

4.8 km/h aus 116

9.7 km/h aus SE

7.0 C

7.2 C

7.1 C

7.7 C

0 W/m

0.00 mm

10:35

7.7 C

1012.2 hpa

96 %

3.2 km/h aus 117

8.0 km/h aus SE

7.1 C

7.9 C

7.7 C

7.9 C

0 W/m

0.00 mm

10:40

7.8 C

1012.2 hpa

96 %

1.6 km/h aus 116

8.0 km/h aus SE

7.2 C

8.0 C

7.8 C

8.0 C

0 W/m

0.00 mm

10:45

8.0 C

1012.2 hpa

96 %

6.4 km/h aus 116

11.3 km/h aus SE

7.4 C

7.2 C

7.1 C

8.2 C

0 W/m

0.00 mm

10:50

8.2 C

1012.2 hpa

96 %

6.4 km/h aus 117

11.3 km/h aus SE

7.6 C

7.5 C

7.3 C

8.4 C

0 W/m

0.00 mm

10:55

8.4 C

1012.2 hpa

96 %

6.4 km/h aus 117

9.7 km/h aus SE

7.8 C

7.7 C

7.5 C

8.6 C

0 W/m

0.00 mm

11:00

8.6 C

1012.1 hpa

96 %

4.8 km/h aus 116

9.7 km/h aus ESE

8.0 C

8.4 C

8.2 C

8.8 C

0 W/m

0.00 mm

11:05

9.0 C

1012.1 hpa

96 %

6.4 km/h aus 115

11.3 km/h aus SE

8.4 C

8.5 C

8.2 C

9.3 C

0 W/m

0.00 mm

11:10

9.8 C

1012.1 hpa

96 %

4.8 km/h aus 118

11.3 km/h aus SE

9.2 C

9.8 C

9.6 C

10.1 C

0 W/m

0.00 mm

11:15

10.2 C

1012.0 hpa

94 %

4.8 km/h aus 117

14.5 km/h aus SE

9.2 C

10.2 C

10.0 C

10.4 C

0 W/m

0.00 mm

11:20

10.8 C

1012.0 hpa

91 %

8.0 km/h aus 117

16.1 km/h aus SE

9.4 C

10.1 C

10.0 C

10.9 C

0 W/m

0.00 mm

11:25

11.3 C

1012.0 hpa

88 %

4.8 km/h aus 117

9.7 km/h aus SE

9.4 C

11.3 C

11.2 C

11.3 C

0 W/m

0.00 mm

11:30

11.5 C

1011.9 hpa

83 %

6.4 km/h aus 116

9.7 km/h aus SE

8.7 C

11.1 C

11.1 C

11.4 C

0 W/m

0.00 mm

11:35

11.6 C

1011.9 hpa

79 %

6.4 km/h aus 117

16.1 km/h aus SE

8.0 C

11.0 C

11.2 C

11.4 C

0 W/m

0.00 mm

11:40

11.8 C

1011.9 hpa

79 %

9.7 km/h aus 117

19.3 km/h aus SE

8.3 C

10.7 C

10.9 C

11.7 C

0 W/m

0.00 mm

11:45

11.9 C

1011.9 hpa

78 %

6.4 km/h aus 117

16.1 km/h aus SE

8.2 C

11.4 C

11.6 C

11.7 C

0 W/m

0.00 mm

11:50

12.2 C

1011.9 hpa

77 %

6.4 km/h aus 117

16.1 km/h aus SE

8.3 C

11.7 C

11.9 C

11.9 C

0 W/m

0.00 mm

11:55

12.2 C

1011.9 hpa

76 %

6.4 km/h aus 116

19.3 km/h aus SE

8.1 C

11.7 C

11.9 C

11.9 C

0 W/m

0.00 mm

12:00

12.3 C

1011.7 hpa

75 %

11.3 km/h aus 117

17.7 km/h aus SE

8.0 C

10.9 C

11.2 C

12.0 C

0 W/m

0.00 mm

12:05

12.4 C

1011.7 hpa

74 %

8.0 km/h aus 115

19.3 km/h aus SSE

7.9 C

11.6 C

11.9 C

12.2 C

0 W/m

0.00 mm

12:10

12.4 C

1011.7 hpa

75 %

3.2 km/h aus 117

8.0 km/h aus SSE

8.1 C

12.2 C

12.4 C

12.2 C

0 W/m

0.00 mm

12:15

12.7 C

1011.4 hpa

73 %

8.0 km/h aus 118

22.5 km/h aus SE

7.9 C

11.8 C

12.2 C

12.3 C

0 W/m

0.00 mm

12:20

12.8 C

1011.4 hpa

70 %

9.7 km/h aus 117

20.9 km/h aus SE

7.4 C

11.6 C

12.0 C

12.3 C

0 W/m

0.00 mm

12:25

12.8 C

1011.4 hpa

68 %

12.9 km/h aus 117

22.5 km/h aus ESE

7.0 C

10.9 C

11.4 C

12.3 C

0 W/m

0.00 mm

12:30

12.8 C

1011.3 hpa

68 %

11.3 km/h aus 116

22.5 km/h aus SE

7.1 C

11.3 C

11.8 C

12.3 C

0 W/m

0.00 mm

12:35

13.1 C

1011.3 hpa

68 %

12.9 km/h aus 117

24.1 km/h aus E

7.3 C

11.3 C

11.8 C

12.6 C

0 W/m

0.00 mm

12:40

13.0 C

1011.3 hpa

68 %

11.3 km/h aus 117

24.1 km/h aus ESE

7.2 C

11.6 C

12.1 C

12.5 C

0 W/m

0.00 mm

12:45

13.1 C

1011.0 hpa

68 %

12.9 km/h aus 117

25.7 km/h aus ESE

7.3 C

11.3 C

11.8 C

12.6 C

0 W/m

0.00 mm

12:50

13.2 C

1011.0 hpa

69 %

9.7 km/h aus 116

17.7 km/h aus ESE

7.6 C

12.0 C

12.4 C

12.7 C

0 W/m

0.00 mm

12:55

13.3 C

1011.0 hpa

68 %

9.7 km/h aus 117

20.9 km/h aus SE

7.5 C

12.1 C

12.6 C

12.8 C

0 W/m

0.00 mm

13:00

13.3 C

1010.8 hpa

68 %

11.3 km/h aus 116

19.3 km/h aus SE

7.5 C

11.9 C

12.4 C

12.8 C

0 W/m

0.00 mm

13:05

13.5 C

1010.8 hpa

68 %

8.0 km/h aus 110

16.1 km/h aus SE

7.7 C

12.6 C

13.1 C

13.0 C

0 W/m

0.00 mm

13:10

13.5 C

1010.8 hpa

66 %

9.7 km/h aus 110

19.3 km/h aus SSE

7.3 C

12.3 C

12.9 C

12.9 C

0 W/m

0.00 mm

13:15

13.6 C

1010.6 hpa

69 %

8.0 km/h aus 108

19.3 km/h aus SE

8.0 C

12.8 C

13.3 C

13.2 C

0 W/m

0.00 mm

13:20

13.3 C

1010.6 hpa

67 %

6.4 km/h aus 109

16.1 km/h aus ESE

7.3 C

12.7 C

13.2 C

12.8 C

0 W/m

0.00 mm

13:25

13.3 C

1010.6 hpa

68 %

4.8 km/h aus 111

14.5 km/h aus ENE

7.5 C

12.8 C

13.3 C

12.8 C

0 W/m

0.00 mm

13:30

13.4 C

1010.4 hpa

67 %

8.0 km/h aus 114

14.5 km/h aus ESE

7.4 C

12.5 C

13.0 C

12.9 C

0 W/m

0.00 mm

13:35

13.1 C

1010.4 hpa

67 %

8.0 km/h aus 108

16.1 km/h aus E

7.1 C

12.1 C

12.6 C

12.6 C

0 W/m

0.00 mm

13:40

12.9 C

1010.4 hpa

67 %

9.7 km/h aus 107

17.7 km/h aus ESE

6.9 C

11.6 C

12.1 C

12.4 C

0 W/m

0.00 mm

13:45

13.1 C

1010.3 hpa

66 %

11.3 km/h aus 112

22.5 km/h aus E

6.8 C

11.6 C

12.1 C

12.5 C

0 W/m

0.00 mm

13:50

13.2 C

1010.3 hpa

64 %

12.9 km/h aus 105

24.1 km/h aus ESE

6.6 C

11.3 C

11.9 C

12.6 C

0 W/m

0.00 mm

13:55

13.3 C

1010.3 hpa

64 %

12.9 km/h aus 110

22.5 km/h aus E

6.6 C

11.4 C

12.0 C

12.7 C

0 W/m

0.00 mm

14:00

13.4 C

1010.3 hpa

65 %

12.9 km/h aus 109

20.9 km/h aus ESE

7.0 C

11.6 C

12.2 C

12.9 C

0 W/m

0.00 mm

14:05

13.4 C

1010.3 hpa

64 %

12.9 km/h aus 113

22.5 km/h aus ESE

6.7 C

11.5 C

12.1 C

12.8 C

0 W/m

0.00 mm

14:10

13.4 C

1010.3 hpa

63 %

11.3 km/h aus 111

19.3 km/h aus ESE

6.5 C

11.9 C

12.6 C

12.8 C

0 W/m

0.00 mm

14:15

13.4 C

1010.0 hpa

65 %

11.3 km/h aus 108

22.5 km/h aus ESE

6.9 C

11.9 C

12.5 C

12.8 C

0 W/m

0.00 mm

14:20

13.3 C

1010.0 hpa

65 %

9.7 km/h aus 110

19.3 km/h aus E

6.9 C

12.1 C

12.7 C

12.8 C

0 W/m

0.00 mm

14:25

13.3 C

1010.0 hpa

65 %

14.5 km/h aus 113

22.5 km/h aus E

6.9 C

11.1 C

11.7 C

12.8 C

0 W/m

0.00 mm

14:30

13.3 C

1009.8 hpa

66 %

9.7 km/h aus 111

20.9 km/h aus E

7.1 C

12.1 C

12.7 C

12.8 C

0 W/m

0.00 mm

14:35

13.3 C

1009.8 hpa

65 %

12.9 km/h aus 114

24.1 km/h aus ESE

6.9 C

11.5 C

12.1 C

12.8 C

0 W/m

0.00 mm

14:40

13.4 C

1009.8 hpa

65 %

11.3 km/h aus 111

17.7 km/h aus ESE

7.0 C

12.0 C

12.6 C

12.9 C

0 W/m

0.00 mm

14:45

13.3 C

1009.8 hpa

64 %

12.9 km/h aus 104

24.1 km/h aus ESE

6.7 C

11.4 C

12.1 C

12.7 C

0 W/m

0.00 mm

14:50

13.4 C

1009.8 hpa

65 %

9.7 km/h aus 110

19.3 km/h aus E

7.0 C

12.2 C

12.8 C

12.9 C

0 W/m

0.00 mm

14:55

13.5 C

1009.8 hpa

64 %

12.9 km/h aus 113

20.9 km/h aus SE

6.8 C

11.7 C

12.3 C

12.9 C

0 W/m

0.00 mm

15:00

13.3 C

1009.6 hpa

63 %

11.3 km/h aus 108

22.5 km/h aus ENE

6.4 C

11.8 C

12.4 C

12.7 C

0 W/m

0.00 mm

15:05

13.4 C

1009.6 hpa

65 %

8.0 km/h aus 112

22.5 km/h aus ENE

6.9 C

12.4 C

13.0 C

12.8 C

0 W/m

0.00 mm

15:10

13.5 C

1009.6 hpa

64 %

12.9 km/h aus 105

22.5 km/h aus ESE

6.8 C

11.7 C

12.3 C

12.9 C

0 W/m

0.00 mm

15:15

13.4 C

1009.4 hpa

63 %

12.9 km/h aus 103

20.9 km/h aus ESE

6.5 C

11.6 C

12.2 C

12.8 C

0 W/m

0.00 mm

15:20

13.6 C

1009.4 hpa

64 %

6.4 km/h aus 110

16.1 km/h aus E

6.9 C

12.9 C

13.5 C

12.9 C

0 W/m

0.00 mm

15:25

13.6 C

1009.4 hpa

63 %

8.0 km/h aus 108

17.7 km/h aus E

6.7 C

12.7 C

13.3 C

13.0 C

0 W/m

0.00 mm

15:30

13.6 C

1009.3 hpa

63 %

11.3 km/h aus 108

20.9 km/h aus ESE

6.6 C

12.1 C

12.7 C

12.9 C

0 W/m

0.00 mm

15:35

13.6 C

1009.3 hpa

62 %

11.3 km/h aus 112

24.1 km/h aus ESE

6.5 C

12.1 C

12.8 C

12.9 C

0 W/m

0.00 mm

15:40

13.6 C

1009.3 hpa

61 %

9.7 km/h aus 108

19.3 km/h aus E

6.2 C

12.3 C

12.9 C

12.9 C

0 W/m

0.00 mm

15:45

13.5 C

1009.2 hpa

60 %

14.5 km/h aus 113

27.4 km/h aus ESE

5.9 C

11.1 C

11.8 C

12.8 C

0 W/m

0.00 mm

15:50

13.6 C

1009.2 hpa

61 %

14.5 km/h aus 104

22.5 km/h aus SE

6.2 C

11.2 C

11.9 C

12.9 C

0 W/m

0.00 mm

15:55

13.4 C

1009.2 hpa

60 %

12.9 km/h aus 110

27.4 km/h aus E

5.8 C

11.4 C

12.2 C

12.7 C

0 W/m

0.00 mm

16:00

13.3 C

1009.0 hpa

60 %

14.5 km/h aus 110

22.5 km/h aus ESE

5.7 C

10.9 C

11.7 C

12.6 C

0 W/m

0.00 mm

16:05

13.3 C

1009.0 hpa

61 %

14.5 km/h aus 107

27.4 km/h aus E

6.0 C

11.0 C

11.7 C

12.7 C

0 W/m

0.00 mm

16:10

13.2 C

1009.0 hpa

61 %

11.3 km/h aus 109

19.3 km/h aus E

5.9 C

11.7 C

12.3 C

12.6 C

0 W/m

0.00 mm

16:15

13.2 C

1008.8 hpa

60 %

11.3 km/h aus 105

20.9 km/h aus E

5.6 C

11.6 C

12.3 C

12.5 C

0 W/m

0.00 mm

16:20

13.3 C

1008.8 hpa

61 %

9.7 km/h aus 102

20.9 km/h aus E

5.9 C

11.9 C

12.6 C

12.6 C

0 W/m

0.00 mm

16:25

13.3 C

1008.8 hpa

61 %

8.0 km/h aus 106

19.3 km/h aus ENE

5.9 C

12.2 C

12.9 C

12.6 C

0 W/m

0.00 mm

16:30

13.3 C

1008.8 hpa

61 %

11.3 km/h aus 109

22.5 km/h aus E

6.0 C

11.8 C

12.4 C

12.7 C

0 W/m

0.00 mm

16:35

13.3 C

1008.8 hpa

61 %

11.3 km/h aus 101

24.1 km/h aus E

5.9 C

11.7 C

12.4 C

12.6 C

0 W/m

0.00 mm

16:40

13.2 C

1008.8 hpa

61 %

9.7 km/h aus 110

19.3 km/h aus ENE

5.8 C

11.8 C

12.4 C

12.5 C

0 W/m

0.00 mm

16:45

13.1 C

1008.8 hpa

61 %

12.9 km/h aus 108

20.9 km/h aus E

5.7 C

11.1 C

11.7 C

12.4 C

0 W/m

0.00 mm

16:50

13.0 C

1008.8 hpa

62 %

11.3 km/h aus 110

19.3 km/h aus ESE

5.9 C

11.4 C

12.1 C

12.3 C

0 W/m

0.00 mm

16:55

12.9 C

1008.8 hpa

63 %

6.4 km/h aus 104

17.7 km/h aus ENE

6.1 C

12.2 C

12.8 C

12.3 C

0 W/m

0.00 mm

17:00

12.8 C

1008.7 hpa

63 %

9.7 km/h aus 110

17.7 km/h aus E

5.9 C

11.4 C

12.0 C

12.2 C

0 W/m

0.00 mm

17:05

12.7 C

1008.7 hpa

64 %

11.3 km/h aus 110

20.9 km/h aus E

6.1 C

11.1 C

11.7 C

12.1 C

0 W/m

0.00 mm

17:10

12.7 C

1008.7 hpa

64 %

11.3 km/h aus 115

20.9 km/h aus E

6.0 C

11.1 C

11.7 C

12.1 C

0 W/m

0.00 mm

17:15

12.7 C

1008.7 hpa

65 %

12.9 km/h aus 105

22.5 km/h aus ENE

6.3 C

10.7 C

11.3 C

12.1 C

0 W/m

0.00 mm

17:20

12.6 C

1008.7 hpa

66 %

9.7 km/h aus 108

17.7 km/h aus ESE

6.4 C

11.2 C

11.8 C

12.1 C

0 W/m

0.00 mm

17:25

12.5 C

1008.7 hpa

66 %

8.0 km/h aus 105

17.7 km/h aus ESE

6.3 C

11.4 C

11.9 C

12.0 C

0 W/m

0.00 mm

17:30

12.3 C

1008.6 hpa

68 %

6.4 km/h aus 107

11.3 km/h aus ESE

6.6 C

11.6 C

12.1 C

11.9 C

0 W/m

0.00 mm

17:35

12.3 C

1008.6 hpa

68 %

6.4 km/h aus 102

11.3 km/h aus ESE

6.5 C

11.6 C

12.0 C

11.8 C

0 W/m

0.00 mm

17:40

12.2 C

1008.6 hpa

68 %

6.4 km/h aus 107

17.7 km/h aus ENE

6.5 C

11.5 C

11.9 C

11.8 C

0 W/m

0.00 mm

17:45

12.1 C

1008.4 hpa

69 %

4.8 km/h aus 107

12.9 km/h aus E

6.5 C

11.6 C

12.1 C

11.6 C

0 W/m

0.00 mm

17:50

11.9 C

1008.4 hpa

70 %

3.2 km/h aus 108

11.3 km/h aus ENE

6.6 C

11.6 C

11.9 C

11.6 C

0 W/m

0.00 mm

17:55

11.8 C

1008.4 hpa

71 %

3.2 km/h aus 109

9.7 km/h aus ENE

6.7 C

11.4 C

11.8 C

11.4 C

0 W/m

0.00 mm

18:00

11.6 C

1008.3 hpa

71 %

4.8 km/h aus 107

11.3 km/h aus ENE

6.5 C

11.3 C

11.6 C

11.3 C

0 W/m

0.00 mm

18:05

11.4 C

1008.3 hpa

72 %

4.8 km/h aus 101

8.0 km/h aus E

6.6 C

11.1 C

11.4 C

11.1 C

0 W/m

0.00 mm

18:10

11.3 C

1008.3 hpa

73 %

3.2 km/h aus 105

6.4 km/h aus E

6.6 C

11.0 C

11.3 C

11.0 C

0 W/m

0.00 mm

18:15

11.1 C

1008.2 hpa

74 %

3.2 km/h aus 99

6.4 km/h aus E

6.6 C

10.9 C

11.1 C

10.9 C

0 W/m

0.00 mm

18:20

10.8 C

1008.2 hpa

75 %

3.2 km/h aus 105

6.4 km/h aus E

6.6 C

10.6 C

10.8 C

10.6 C

0 W/m

0.00 mm

18:25

10.7 C

1008.2 hpa

75 %

3.2 km/h aus 107

8.0 km/h aus E

6.4 C

10.5 C

10.7 C

10.5 C

0 W/m

0.00 mm

18:30

10.4 C

1008.2 hpa

76 %

1.6 km/h aus 100

8.0 km/h aus E

6.4 C

10.3 C

10.4 C

10.3 C

0 W/m

0.00 mm

18:35

10.2 C

1008.2 hpa

77 %

1.6 km/h aus 103

6.4 km/h aus E

6.4 C

10.1 C

10.2 C

10.1 C

0 W/m

0.00 mm

18:40

10.1 C

1008.2 hpa

77 %

1.6 km/h aus 99

8.0 km/h aus E

6.2 C

10.0 C

10.1 C

10.0 C

0 W/m

0.00 mm

18:45

9.9 C

1008.2 hpa

78 %

3.2 km/h aus 99

6.4 km/h aus E

6.3 C

9.9 C

9.9 C

9.9 C

0 W/m

0.00 mm

18:50

9.9 C

1008.2 hpa

78 %

1.6 km/h aus 100

6.4 km/h aus E

6.3 C

9.9 C

9.9 C

9.9 C

0 W/m

0.00 mm

18:55

9.8 C

1008.2 hpa

78 %

1.6 km/h aus 103

8.0 km/h aus E

6.1 C

9.7 C

9.8 C

9.7 C

0 W/m

0.00 mm

19:00

9.8 C

1008.2 hpa

78 %

3.2 km/h aus 98

6.4 km/h aus E

6.1 C

9.7 C

9.8 C

9.7 C

0 W/m

0.00 mm

19:05

9.7 C

1008.2 hpa

78 %

3.2 km/h aus 101

8.0 km/h aus E

6.0 C

9.6 C

9.7 C

9.6 C

0 W/m

0.00 mm

19:10

9.6 C

1008.2 hpa

78 %

1.6 km/h aus 111

6.4 km/h aus E

6.0 C

9.5 C

9.6 C

9.5 C

0 W/m

0.00 mm

19:15

9.5 C

1008.2 hpa

78 %

1.6 km/h aus 102

6.4 km/h aus E

5.9 C

9.4 C

9.5 C

9.4 C

0 W/m

0.00 mm

19:20

9.3 C

1008.2 hpa

79 %

1.6 km/h aus 113

4.8 km/h aus E

5.8 C

9.2 C

9.3 C

9.2 C

0 W/m

0.00 mm

19:25

9.2 C

1008.2 hpa

80 %

1.6 km/h aus 107

4.8 km/h aus E

5.9 C

9.1 C

9.2 C

9.1 C

0 W/m

0.00 mm

19:30

8.9 C

1008.2 hpa

80 %

1.6 km/h aus 106

6.4 km/h aus E

5.6 C

8.8 C

8.9 C

8.8 C

0 W/m

0.00 mm

19:35

8.8 C

1008.2 hpa

81 %

1.6 km/h aus 93

6.4 km/h aus E

5.7 C

8.7 C

8.8 C

8.7 C

0 W/m

0.00 mm

19:40

8.7 C

1008.2 hpa

81 %

1.6 km/h aus 107

6.4 km/h aus E

5.6 C

8.6 C

8.7 C

8.6 C

0 W/m

0.00 mm

19:45

8.6 C

1008.3 hpa

82 %

3.2 km/h aus 105

8.0 km/h aus E

5.7 C

8.5 C

8.6 C

8.5 C

0 W/m

0.00 mm

19:50

8.6 C

1008.3 hpa

82 %

3.2 km/h aus 101

8.0 km/h aus E

5.7 C

8.5 C

8.6 C

8.5 C

0 W/m

0.00 mm

19:55

8.6 C

1008.3 hpa

82 %

1.6 km/h aus 99

6.4 km/h aus E

5.7 C

8.5 C

8.6 C

8.5 C

0 W/m

0.00 mm

20:00

8.5 C

1008.3 hpa

82 %

3.2 km/h aus 105

4.8 km/h aus E

5.6 C

8.4 C

8.5 C

8.4 C

0 W/m

0.00 mm

20:05

8.4 C

1008.3 hpa

82 %

3.2 km/h aus 100

9.7 km/h aus E

5.5 C

8.3 C

8.4 C

8.3 C

0 W/m

0.00 mm

20:10

8.3 C

1008.3 hpa

82 %

3.2 km/h aus 100

8.0 km/h aus E

5.4 C

8.3 C

8.3 C

8.3 C

0 W/m

0.00 mm

20:15

8.4 C

1008.2 hpa

82 %

1.6 km/h aus 105

6.4 km/h aus E

5.5 C

8.3 C

8.4 C

8.3 C

0 W/m

0.00 mm

20:20

8.3 C

1008.2 hpa

82 %

3.2 km/h aus 107

8.0 km/h aus E

5.4 C

8.3 C

8.3 C

8.3 C

0 W/m

0.00 mm

20:25

8.4 C

1008.2 hpa

82 %

3.2 km/h aus 109

8.0 km/h aus E

5.5 C

8.3 C

8.4 C

8.3 C

0 W/m

0.00 mm

20:30

8.3 C

1008.3 hpa

81 %

3.2 km/h aus 93

8.0 km/h aus E

5.3 C

8.2 C

8.3 C

8.2 C

0 W/m

0.00 mm

20:35

8.2 C

1008.3 hpa

81 %

4.8 km/h aus 100

9.7 km/h aus E

5.2 C

7.7 C

7.8 C

8.1 C

0 W/m

0.00 mm

20:40

8.2 C

1008.3 hpa

82 %

4.8 km/h aus 105

9.7 km/h aus ENE

5.3 C

7.7 C

7.8 C

8.1 C

0 W/m

0.00 mm

20:45

8.1 C

1008.3 hpa

82 %

4.8 km/h aus 109

9.7 km/h aus ENE

5.2 C

7.7 C

7.7 C

8.1 C

0 W/m

0.00 mm

20:50

8.1 C

1008.3 hpa

82 %

4.8 km/h aus 101

11.3 km/h aus ENE

5.2 C

7.6 C

7.7 C

8.0 C

0 W/m

0.00 mm

20:55

8.1 C

1008.3 hpa

82 %

3.2 km/h aus 102

8.0 km/h aus ENE

5.2 C

8.0 C

8.1 C

8.0 C

0 W/m

0.00 mm

21:00

8.0 C

1008.4 hpa

82 %

3.2 km/h aus 112

9.7 km/h aus ENE

5.1 C

7.9 C

8.0 C

7.9 C

0 W/m

0.00 mm

21:05

8.0 C

1008.4 hpa

82 %

4.8 km/h aus 109

11.3 km/h aus NE

5.1 C

7.5 C

7.6 C

7.9 C

0 W/m

0.00 mm

21:10

7.8 C

1008.4 hpa

83 %

3.2 km/h aus 109

8.0 km/h aus ENE

5.1 C

7.8 C

7.8 C

7.8 C

0 W/m

0.00 mm

21:15

7.8 C

1008.4 hpa

83 %

3.2 km/h aus 114

6.4 km/h aus NE

5.1 C

7.7 C

7.8 C

7.7 C

0 W/m

0.00 mm

21:20

7.7 C

1008.4 hpa

83 %

3.2 km/h aus 117

8.0 km/h aus NE

5.0 C

7.7 C

7.7 C

7.7 C

0 W/m

0.00 mm

21:25

7.5 C

1008.4 hpa

83 %

0.0 km/h aus 117

4.8 km/h aus ENE

4.8 C

7.4 C

7.5 C

7.4 C

0 W/m

0.00 mm

21:30

7.1 C

1008.3 hpa

84 %

0.0 km/h aus 117

0.0 km/h aus ---

4.5 C

7.0 C

7.1 C

7.0 C

0 W/m

0.00 mm

21:35

6.6 C

1008.3 hpa

85 %

0.0 km/h aus 117

0.0 km/h aus ---

4.3 C

6.6 C

6.6 C

6.6 C

0 W/m

0.00 mm

21:40

6.2 C

1008.3 hpa

86 %

0.0 km/h aus 118

0.0 km/h aus ---

4.1 C

6.2 C

6.2 C

6.2 C

0 W/m

0.00 mm

21:45

5.9 C

1008.3 hpa

86 %

0.0 km/h aus 117

0.0 km/h aus ---

3.7 C

5.8 C

5.9 C

5.8 C

0 W/m

0.00 mm

21:50

5.6 C

1008.3 hpa

87 %

0.0 km/h aus 117

0.0 km/h aus ---

3.6 C

5.6 C

5.6 C

5.6 C

0 W/m

0.00 mm

21:55

5.4 C

1008.3 hpa

88 %

0.0 km/h aus 117

1.6 km/h aus ENE

3.6 C

5.4 C

5.4 C

5.4 C

0 W/m

0.00 mm

22:00

5.6 C

1008.3 hpa

89 %

1.6 km/h aus 117

8.0 km/h aus ENE

3.9 C

5.6 C

5.6 C

5.6 C

0 W/m

0.00 mm

22:05

5.8 C

1008.3 hpa

89 %

1.6 km/h aus 117

6.4 km/h aus ENE

4.2 C

5.8 C

5.8 C

5.8 C

0 W/m

0.00 mm

22:10

6.2 C

1008.3 hpa

89 %

3.2 km/h aus 117

11.3 km/h aus NE

4.5 C

6.2 C

6.2 C

6.2 C

0 W/m

0.00 mm

22:15

6.4 C

1008.3 hpa

89 %

3.2 km/h aus 117

8.0 km/h aus NE

4.7 C

6.4 C

6.4 C

6.4 C

0 W/m

0.00 mm

22:20

6.7 C

1008.3 hpa

89 %

3.2 km/h aus 117

8.0 km/h aus NE

5.0 C

6.7 C

6.7 C

6.7 C

0 W/m

0.00 mm

22:25

6.9 C

1008.3 hpa

88 %

4.8 km/h aus 117

9.7 km/h aus NE

5.1 C

6.4 C

6.4 C

6.9 C

0 W/m

0.00 mm

22:30

7.2 C

1008.3 hpa

87 %

3.2 km/h aus 117

11.3 km/h aus NE

5.2 C

7.2 C

7.2 C

7.2 C

0 W/m

0.00 mm

22:35

7.4 C

1008.3 hpa

85 %

3.2 km/h aus 117

11.3 km/h aus NE

5.0 C

7.3 C

7.4 C

7.3 C

0 W/m

0.00 mm

22:40

7.7 C

1008.3 hpa

84 %

4.8 km/h aus 117

12.9 km/h aus E

5.2 C

7.3 C

7.3 C

7.7 C

0 W/m

0.00 mm

22:45

8.1 C

1008.1 hpa

82 %

8.0 km/h aus 116

19.3 km/h aus ENE

5.2 C

6.7 C

6.7 C

8.0 C

0 W/m

0.00 mm

22:50

8.3 C

1008.1 hpa

80 %

8.0 km/h aus 117

16.1 km/h aus ENE

5.0 C

6.9 C

7.0 C

8.2 C

0 W/m

0.00 mm

22:55

8.5 C

1008.1 hpa

79 %

8.0 km/h aus 116

17.7 km/h aus ENE

5.1 C

7.2 C

7.3 C

8.4 C

0 W/m

0.00 mm

23:00

8.7 C

1008.0 hpa

78 %

6.4 km/h aus 117

17.7 km/h aus ESE

5.0 C

7.7 C

7.8 C

8.6 C

0 W/m

0.00 mm

23:05

8.7 C

1008.0 hpa

77 %

8.0 km/h aus 117

17.7 km/h aus ENE

4.9 C

7.4 C

7.5 C

8.6 C

0 W/m

0.00 mm

23:10

8.8 C

1008.0 hpa

77 %

8.0 km/h aus 117

19.3 km/h aus ENE

5.0 C

7.5 C

7.6 C

8.7 C

0 W/m

0.00 mm

23:15

8.8 C

1007.8 hpa

77 %

11.3 km/h aus 117

20.9 km/h aus ENE

5.0 C

6.9 C

7.1 C

8.7 C

0 W/m

0.00 mm

23:20

8.8 C

1007.8 hpa

76 %

8.0 km/h aus 117

24.1 km/h aus E

4.8 C

7.5 C

7.7 C

8.7 C

0 W/m

0.00 mm

23:25

8.8 C

1007.8 hpa

76 %

9.7 km/h aus 117

19.3 km/h aus ENE

4.8 C

7.2 C

7.3 C

8.7 C

0 W/m

0.00 mm

23:30

8.8 C

1007.7 hpa

76 %

9.7 km/h aus 117

25.7 km/h aus E

4.8 C

7.2 C

7.3 C

8.7 C

0 W/m

0.00 mm

23:35

8.8 C

1007.7 hpa

76 %

11.3 km/h aus 116

24.1 km/h aus E

4.8 C

6.9 C

7.1 C

8.7 C

0 W/m

0.00 mm

23:40

8.8 C

1007.7 hpa

76 %

9.7 km/h aus 117

20.9 km/h aus E

4.8 C

7.2 C

7.3 C

8.7 C

0 W/m

0.00 mm

23:45

8.9 C

1007.7 hpa

75 %

11.3 km/h aus 117

27.4 km/h aus E

4.7 C

6.9 C

7.1 C

8.7 C

0 W/m

0.00 mm

23:50

8.8 C

1007.7 hpa

76 %

12.9 km/h aus 118

22.5 km/h aus ESE

4.8 C

6.4 C

6.6 C

8.6 C

0 W/m

0.00 mm

23:55

8.8 C

1007.7 hpa

76 %

12.9 km/h aus 117

24.1 km/h aus E

4.8 C

6.4 C

6.6 C

8.6 C

0 W/m

0.00 mm